TimeEST,TemperatureF,Dew PointF,Humidity,Sea Level PressureIn,VisibilityMPH,Wind Direction,Wind SpeedMPH,Gust SpeedMPH,PrecipitationIn,Events,Conditions,WindDirDegrees,DateUTC
12:52 AM,48.9,37.0,64,30.50,10.0,NE,9.2,-,N/A,,Overcast,40,2012-11-19 05:52:00
1:52 AM,48.0,37.0,66,30.49,10.0,NE,10.4,-,N/A,,Overcast,40,2012-11-19 06:52:00
2:52 AM,48.0,37.0,66,30.49,10.0,NE,9.2,-,N/A,,Overcast,40,2012-11-19 07:52:00
3:52 AM,48.0,37.0,66,30.47,10.0,NNE,9.2,-,N/A,,Overcast,30,2012-11-19 08:52:00
4:52 AM,48.0,37.0,66,30.46,10.0,North,9.2,-,N/A,,Overcast,10,2012-11-19 09:52:00
5:52 AM,48.0,37.0,66,30.46,10.0,NNE,10.4,-,N/A,,Overcast,20,2012-11-19 10:52:00
6:52 AM,46.9,37.0,68,30.46,10.0,NNE,11.5,-,N/A,,Mostly Cloudy,30,2012-11-19 11:52:00
7:52 AM,48.0,37.0,66,30.46,10.0,NNE,12.7,-,N/A,,Overcast,30,2012-11-19 12:52:00
8:52 AM,48.0,37.9,68,30.46,10.0,NE,10.4,-,N/A,,Overcast,40,2012-11-19 13:52:00
9:52 AM,48.9,37.9,66,30.45,10.0,NE,10.4,-,N/A,,Overcast,40,2012-11-19 14:52:00
10:52 AM,50.0,39.0,66,30.43,10.0,NNE,10.4,-,N/A,,Overcast,20,2012-11-19 15:52:00
11:52 AM,52.0,39.9,63,30.40,10.0,NNE,11.5,-,N/A,,Overcast,30,2012-11-19 16:52:00
12:52 PM,54.0,39.9,59,30.36,10.0,NNE,9.2,-,N/A,,Overcast,30,2012-11-19 17:52:00
1:52 PM,55.9,39.0,53,30.33,10.0,North,10.4,-,N/A,,Scattered Clouds,350,2012-11-19 18:52:00
2:52 PM,55.0,39.0,55,30.32,10.0,North,8.1,-,N/A,,Mostly Cloudy,350,2012-11-19 19:52:00
3:52 PM,54.0,39.0,57,30.31,10.0,North,10.4,-,N/A,,Mostly Cloudy,350,2012-11-19 20:52:00
4:52 PM,53.1,39.0,59,30.31,10.0,North,8.1,-,N/A,,Overcast,350,2012-11-19 21:52:00
5:52 PM,52.0,37.9,59,30.30,10.0,North,10.4,-,N/A,,Overcast,350,2012-11-19 22:52:00
6:52 PM,51.1,37.9,61,30.30,10.0,North,11.5,-,N/A,,Overcast,350,2012-11-19 23:52:00
7:52 PM,50.0,37.0,61,30.30,10.0,North,10.4,-,N/A,,Overcast,10,2012-11-20 00:52:00
8:52 PM,50.0,34.0,54,30.28,10.0,NNE,9.2,-,N/A,,Overcast,20,2012-11-20 01:52:00
9:52 PM,46.9,36.0,66,30.26,10.0,NE,4.6,-,N/A,,Mostly Cloudy,50,2012-11-20 02:52:00
10:52 PM,46.9,36.0,66,30.25,10.0,NNE,4.6,-,N/A,,Scattered Clouds,30,2012-11-20 03:52:00
11:52 PM,45.0,35.1,68,30.24,10.0,NNW,5.8,-,N/A,,Mostly Cloudy,340,2012-11-20 04:52:00